FW0801 Weather Reports


time (UTC)temp
F
wind
direction
speed
knots
gust
knots
rain 1hr
in
rain 24hr
in
rain mn
in
humidity
%
barometer
mb
20260506033840 57 135 1.7 1.7 0.00 0.28 0.01 99 1010.9
20260506033740 57 112 1.7 2.6 0.00 0.28 0.01 99 1010.7
20260506033140 57 90 4.3 6.1 0.00 0.28 0.01 99 1011.0
20260506033040 57 90 5.2 6.1 0.00 0.28 0.01 99 1010.9
20260506032739 58 90 5.2 6.1 0.00 0.28 0.01 99 1010.9
20260506032340 58 90 5.2 5.2 0.00 0.28 0.01 99 1010.8
20260506032140 57 90 5.2 6.1 0.00 0.28 0.01 99 1010.7
20260506032040 58 90 5.2 6.1 0.00 0.28 0.01 99 1010.6
20260506031739 58 90 5.2 6.1 0.00 0.28 0.01 99 1010.9
20260506031640 58 90 5.2 5.2 0.00 0.28 0.01 99 1010.9
20260506031440 58 90 4.3 5.2 0.00 0.28 0.01 99 1010.8
20260506031339 57 90 4.3 5.2 0.00 0.28 0.01 99 1010.9
20260506031240 58 90 4.3 5.2 0.00 0.28 0.01 99 1010.8
20260506031040 58 90 4.3 5.2 0.00 0.28 0.01 99 1011.0
20260506030840 57 90 4.3 5.2 0.00 0.28 0.01 99 1010.9
20260506030740 58 90 4.3 5.2 0.00 0.28 0.01 99 1011.1
20260506030339 57 90 5.2 6.1 0.00 0.28 0.01 99 1010.9
20260506025840 57 90 5.2 5.2 0.00 0.28 0.01 99 1011.3
20260506025740 57 90 4.3 6.1 0.00 0.28 0.01 99 1011.4
20260506025439 57 90 4.3 5.2 0.00 0.28 0.01 99 1011.6
20260506025040 57 90 4.3 5.2 0.00 0.28 0.01 99 1011.7
20260506024940 58 112 4.3 5.2 0.00 0.28 0.01 99 1011.6
20260506024840 57 90 5.2 5.2 0.00 0.28 0.01 99 1011.8
20260506024740 57 90 4.3 5.2 0.00 0.28 0.01 99 1011.6
20260506024640 58 90 3.5 4.3 0.00 0.28 0.01 99 1011.6
20260506024540 57 90 4.3 5.2 0.00 0.28 0.01 99 1011.8
20260506024239 58 90 3.5 4.3 0.00 0.28 0.01 99 1011.6
20260506024039 57 90 3.5 4.3 0.00 0.28 0.01 99 1011.7
20260506023939 57 90 3.5 4.3 0.00 0.28 0.01 99 1011.7
20260506023740 57 90 3.5 4.3 0.00 0.28 0.01 99 1011.8
20260506023639 57 90 3.5 4.3 0.00 0.28 0.01 99 1011.6
20260506023339 57 112 3.5 4.3 0.00 0.28 0.01 99 1011.9
20260506023140 57 90 3.5 4.3 0.00 0.28 0.01 99 1011.7
20260506023040 57 90 3.5 4.3 0.00 0.28 0.01 99 1011.8
20260506022940 57 90 3.5 4.3 0.00 0.28 0.01 99 1011.7
20260506022639 57 112 3.5 4.3 0.00 0.28 0.01 99 1011.9
20260506022539 58 90 3.5 4.3 0.00 0.28 0.01 99 1011.6
20260506022439 57 90 3.5 3.5 0.00 0.28 0.01 99 1011.7
20260506021839 57 112 3.5 4.3 0.00 0.28 0.01 99 1011.5
20260506021740 58 90 3.5 4.3 0.00 0.28 0.01 99 1011.6
20260506021640 58 90 3.5 5.2 0.00 0.28 0.01 99 1011.6
20260506021440 57 90 3.5 4.3 0.00 0.28 0.01 99 1011.8
20260506020839 58 90 3.5 4.3 0.00 0.28 0.01 99 1011.8
20260506020739 57 90 3.5 4.3 0.00 0.28 0.01 99 1011.9
20260506020540 57 68 3.5 3.5 0.00 0.28 0.01 99 1011.8
20260506020139 57 90 3.5 4.3 0.00 0.28 0.01 99 1012.0
20260506015940 58 68 3.5 5.2 0.00 0.28 0.01 99 1011.8
20260506015840 57 90 3.5 4.3 0.00 0.28 0.01 99 1012.0
20260506015640 58 90 3.5 4.3 0.00 0.28 0.01 99 1011.7
20260506015439 58 90 3.5 5.2 0.00 0.28 0.01 99 1011.9
20260506015349 58 90 3.5 4.3 0.00 0.28 0.01 99 1011.9
20260506015240 58 90 3.5 3.5 0.00 0.28 0.01 99 1012.1
20260506015040 58 90 3.5 3.5 0.00 0.28 0.01 99 1012.0
20260506014740 57 68 3.5 3.5 0.00 0.28 0.01 99 1012.2
20260506014640 57 90 3.5 3.5 0.00 0.28 0.01 99 1012.1
20260506014540 58 90 3.5 4.3 0.00 0.28 0.01 99 1012.1
20260506014440 58 90 2.6 3.5 0.00 0.28 0.01 99 1012.2
20260506014340 58 90 2.6 3.5 0.00 0.28 0.01 99 1012.1
20260506014240 58 90 2.6 3.5 0.00 0.28 0.01 99 1012.0
20260506014140 58 90 3.5 3.5 0.00 0.28 0.01 99 1012.3
20260506014040 57 90 3.5 4.3 0.00 0.28 0.01 99 1012.3
20260506013940 58 90 3.5 3.5 0.00 0.28 0.01 99 1012.2
20260506013739 57 90 3.5 3.5 0.00 0.28 0.01 99 1012.2
20260506013640 58 90 3.5 3.5 0.00 0.28 0.01 99 1012.0
20260506013340 58 90 3.5 4.3 0.00 0.28 0.01 99 1012.1
20260506013239 58 90 3.5 3.5 0.00 0.28 0.01 99 1012.2
20260506013139 57 68 3.5 3.5 0.00 0.28 0.01 99 1011.9
20260506012740 57 68 3.5 3.5 0.00 0.28 0.01 99 1012.0
20260506012639 57 90 3.5 3.5 0.00 0.28 0.01 99 1012.0
20260506012439 57 90 3.5 3.5 0.00 0.28 0.01 99 1012.0
20260506012339 57 90 3.5 3.5 0.00 0.28 0.01 99 1012.0
20260506012239 57 68 2.6 3.5 0.00 0.28 0.01 99 1012.0
20260506012040 57 90 2.6 3.5 0.00 0.28 0.01 99 1012.1
20260506011940 57 90 2.6 3.5 0.00 0.28 0.01 99 1012.0
20260506011839 57 90 3.5 3.5 0.00 0.28 0.01 99 1012.1
20260506011739 57 90 3.5 3.5 0.00 0.28 0.01 99 1012.0
20260506011640 57 90 3.5 3.5 0.00 0.28 0.01 99 1011.8
20260506011441 57 90 3.5 4.3 0.00 0.28 0.01 99 1012.1
20260506010639 57 90 3.5 5.2 0.00 0.28 0.01 99 1011.9
20260506010539 57 90 3.5 3.5 0.00 0.28 0.01 99 1012.1
20260506010240 58 90 2.6 3.5 0.00 0.28 0.01 99 1012.1
20260506010040 58 90 2.6 3.5 0.00 0.28 0.01 99 1012.2
20260506005440 58 90 3.5 3.5 0.00 0.28 0.01 99 1012.3
20260506005340 58 90 3.5 3.5 0.00 0.28 0.01 99 1012.3
20260506005240 57 90 3.5 3.5 0.00 0.28 0.01 99 1012.3
20260506005140 57 68 3.5 3.5 0.00 0.28 0.01 99 1012.4
20260506004740 58 90 3.5 3.5 0.00 0.28 0.01 99 1012.4
20260506004639 57 90 3.5 4.3 0.00 0.28 0.01 99 1012.4
20260506004539 57 68 3.5 3.5 0.00 0.28 0.01 99 1012.3
20260506004439 57 90 3.5 3.5 0.00 0.28 0.01 99 1012.3
20260506004339 57 90 3.5 3.5 0.00 0.28 0.01 99 1012.1
20260506004239 57 90 3.5 3.5 0.00 0.28 0.01 99 1012.5
20260506004140 57 90 3.5 3.5 0.00 0.28 0.01 99 1012.6
20260506004040 57 90 2.6 3.5 0.00 0.28 0.01 99 1012.5
20260506003839 57 112 1.7 1.7 0.00 0.28 0.01 99 1012.5
20260506003739 57 112 1.7 2.6 0.00 0.28 0.01 99 1012.4
20260506003639 57 112 1.7 1.7 0.00 0.28 0.01 99 1012.3
20260506003539 57 112 1.7 2.6 0.00 0.28 0.01 99 1012.4
20260506003440 58 112 1.7 2.6 0.00 0.28 0.01 99 1012.6
20260506003240 58 112 2.6 3.5 0.00 0.28 0.01 99 1012.4
20260506003140 58 90 3.5 3.5 0.00 0.28 0.01 99 1012.2
20260506003040 58 112 3.5 3.5 0.00 0.28 0.01 99 1012.4
20260506002840 58 90 3.5 3.5 0.00 0.28 0.01 99 1012.4
20260506002540 58 90 3.5 3.5 0.00 0.28 0.01 99 1012.6
20260506002440 58 90 2.6 3.5 0.00 0.28 0.01 99 1012.5
20260506002239 57 68 2.6 3.5 0.00 0.28 0.01 99 1012.7
20260506002139 57 68 2.6 3.5 0.00 0.28 0.01 99 1012.7
20260506001740 57 90 2.6 3.5 0.00 0.28 0.01 99 1012.8
20260506001640 57 90 1.7 1.7 0.00 0.28 0.01 99 1012.6
20260506001439 57 90 1.7 1.7 0.00 0.28 0.01 99 1013.0
20260506001339 57 112 0.9 1.7 0.00 0.28 0.01 99 1012.7
20260506000640 58 112 1.7 2.6 0.00 0.28 0.01 99 1012.8
20260506000540 58 112 1.7 2.6 0.00 0.28 0.01 99 1012.8
20260506000439 58 112 1.7 2.6 0.00 0.28 0.01 99 1012.7
20260505235939 58 112 1.7 2.6 0.00 0.28 0.01 99 1013.1
20260505235639 57 90 1.7 2.6 0.00 0.28 0.01 99 1012.8
20260505235540 57 90 1.7 2.6 0.00 0.28 0.01 99 1012.8
20260505235440 58 68 2.6 2.6 0.00 0.28 0.01 99 1012.8
20260505235339 57 90 2.6 2.6 0.00 0.28 0.01 99 1012.8
20260505235239 57 90 2.6 3.5 0.00 0.28 0.01 99 1012.8
20260505235139 57 68 2.6 3.5 0.00 0.28 0.01 99 1012.7
20260505234740 58 90 2.6 3.5 0.00 0.28 0.01 99 1012.9
20260505234640 57 90 2.6 3.5 0.00 0.28 0.01 99 1012.8
20260505234340 57 90 3.5 3.5 0.00 0.28 0.01 99 1012.8
20260505234239 58 90 2.6 3.5 0.00 0.28 0.01 99 1012.9
20260505234040 58 90 2.6 3.5 0.00 0.28 0.01 99 1012.8
20260505233940 58 90 2.6 3.5 0.00 0.28 0.01 99 1012.7
20260505233740 58 90 2.6 3.5 0.00 0.28 0.01 99 1012.7
20260505233440 57 68 3.5 3.5 0.00 0.28 0.01 99 1012.8
20260505233340 58 90 3.5 3.5 0.00 0.28 0.01 99 1012.8
20260505232740 57 90 3.5 4.3 0.01 0.28 0.01 99 1012.8
20260505232639 57 68 3.5 5.2 0.01 0.28 0.01 99 1012.8
20260505232340 57 68 3.5 4.3 0.01 0.28 0.01 99 1012.8
20260505232240 57 68 3.5 4.3 0.01 0.28 0.01 99 1012.7
20260505232039 57 90 3.5 4.3 0.01 0.28 0.01 99 1012.9
20260505231940 58 90 3.5 4.3 0.01 0.28 0.01 99 1012.9
20260505231840 57 68 3.5 3.5 0.01 0.28 0.01 99 1013.1
20260505231539 57 90 3.5 4.3 0.01 0.28 0.01 99 1013.0
20260505231339 57 90 3.5 4.3 0.01 0.28 0.01 99 1012.9
20260505231239 57 68 3.5 3.5 0.01 0.28 0.01 99 1012.9
20260505231139 58 68 3.5 4.3 0.01 0.28 0.01 99 1012.8
20260505230940 57 68 3.5 3.5 0.01 0.28 0.01 99 1012.9
20260505230840 57 68 3.5 3.5 0.01 0.28 0.01 99 1012.6
20260505230540 57 90 3.5 3.5 0.01 0.28 0.01 99 1013.1
20260505230440 58 90 3.5 3.5 0.01 0.28 0.01 99 1013.0
20260505230340 58 90 3.5 3.5 0.01 0.28 0.01 99 1012.8
20260505230240 57 90 3.5 3.5 0.01 0.28 0.01 99 1012.8
20260505225939 57 90 3.5 3.5 0.01 0.28 0.01 99 1013.0
20260505225839 57 90 3.5 3.5 0.01 0.28 0.01 99 1013.1
20260505225340 57 90 2.6 3.5 0.01 0.28 0.01 99 1013.0
20260505225140 57 90 2.6 3.5 0.01 0.28 0.01 99 1013.2
20260505224940 57 90 2.6 3.5 0.01 0.28 0.01 99 1013.2
20260505224139 57 90 3.5 3.5 0.01 0.28 0.01 99 1013.0
20260505224039 57 90 2.6 3.5 0.01 0.28 0.01 99 1013.0
20260505223940 57 68 2.6 3.5 0.01 0.28 0.01 99 1013.0
20260505223840 57 90 2.6 2.6 0.01 0.28 0.01 99 1012.9
20260505223740 57 90 2.6 3.5 0.01 0.28 0.01 99 1013.2
20260505223540 57 90 2.6 3.5 0.01 0.28 0.01 99 1013.1
20260505223439 57 68 2.6 2.6 0.01 0.28 0.01 99 1013.5
20260505223339 57 90 2.6 3.5 0.01 0.28 0.01 99 1013.0
20260505223239 57 68 2.6 3.5 0.02 0.28 0.01 99 1013.2
20260505223139 57 68 2.6 3.5 0.02 0.28 0.01 99 1013.0
20260505222840 57 68 1.7 2.6 0.01 0.27 0.00 99 1013.1
20260505222639 57 68 2.6 2.6 0.01 0.27 0.00 99 1013.2
20260505222339 57 90 2.6 2.6 0.01 0.27 0.00 99 1013.5
20260505221539 57 68 2.6 4.3 0.04 0.27 0.00 99 1013.1
20260505221439 57 90 2.6 3.5 0.05 0.27 0.00 99 1013.2
20260505221240 57 90 1.7 2.6 0.07 0.27 0.00 99 1013.1
20260505221140 57 90 2.6 3.5 0.07 0.27 0.00 99 1013.3
20260505220740 57 90 1.7 1.7 0.07 0.27 0.00 99 1013.2
20260505220539 57 90 1.7 2.6 0.07 0.27 0.00 99 1013.3
20260505220340 57 90 1.7 2.6 0.07 0.27 0.00 99 1013.3
20260505220240 57 90 2.6 2.6 0.07 0.27 0.00 99 1013.5
20260505215839 57 90 1.7 2.6 0.07 0.27 0.27 99 1013.5
20260505215740 57 90 2.6 2.6 0.07 0.27 0.27 99 1013.6
20260505215640 57 68 1.7 2.6 0.07 0.27 0.27 99 1013.6
20260505215540 57 68 1.7 2.6 0.07 0.27 0.27 99 1013.5
20260505215440 57 68 2.6 2.6 0.07 0.27 0.27 99 1013.5
20260505215039 57 90 2.6 2.6 0.09 0.27 0.27 99 1013.5
20260505214939 57 68 2.6 3.5 0.11 0.27 0.27 99 1013.5
20260505214740 57 68 1.7 2.6 0.11 0.27 0.27 99 1013.6
20260505214540 57 68 1.7 1.7 0.14 0.27 0.27 99 1013.2
20260505214340 57 90 0.9 1.7 0.14 0.27 0.27 99 1013.7
20260505214040 57 90 0.9 1.7 0.14 0.27 0.27 99 1013.6
20260505213939 57 90 1.7 1.7 0.14 0.27 0.27 99 1013.5
20260505213439 57 90 1.7 2.6 0.14 0.27 0.27 99 1013.6
20260505213340 57 112 1.7 1.7 0.12 0.25 0.25 99 1013.7
20260505212539 57 112 0.9 0.9 0.12 0.25 0.25 99 1013.8
20260505212440 57 135 0.9 0.9 0.12 0.25 0.25 99 1013.9
20260505212340 57 135 0.0 0.9 0.12 0.25 0.25 99 1013.9
20260505212140 57 112 0.0 0.0 0.11 0.24 0.24 99 1014.1
20260505212040 57 112 0.0 0.9 0.11 0.24 0.24 99 1013.9
20260505211839 57 90 0.9 0.9 0.10 0.23 0.23 99 1013.7
20260505211340 57 158 0.0 0.9 0.07 0.20 0.20 99 1014.0
20260505211040 57 90 1.7 2.6 0.07 0.20 0.20 99 1013.9
20260505210939 57 90 2.6 2.6 0.07 0.20 0.20 99 1013.8
20260505210839 57 90 2.6 3.5 0.07 0.20 0.20 99 1013.9
20260505210740 57 90 2.6 2.6 0.07 0.20 0.20 99 1013.6
20260505210639 57 90 2.6 2.6 0.07 0.20 0.20 99 1013.8
20260505210540 57 90 1.7 3.5 0.07 0.20 0.20 99 1014.0
20260505210440 57 90 1.7 1.7 0.07 0.20 0.20 99 1013.8
20260505210240 57 112 1.7 2.6 0.07 0.20 0.20 98 1013.9
20260505210140 57 90 1.7 1.7 0.07 0.20 0.20 98 1014.0
20260505210039 57 90 1.7 1.7 0.07 0.20 0.20 98 1013.8
20260505205839 57 112 1.7 1.7 0.07 0.20 0.20 98 1014.0
20260505205740 57 135 0.9 0.9 0.07 0.20 0.20 98 1014.1
20260505205639 57 112 0.9 0.9 0.07 0.20 0.20 98 1014.0
20260505205239 58 90 0.9 1.7 0.05 0.18 0.18 98 1013.7
20260505205139 57 90 0.9 0.9 0.04 0.17 0.17 98 1013.9
20260505204940 57 90 1.7 1.7 0.02 0.15 0.15 98 1014.1
20260505204840 58 90 1.7 1.7 0.02 0.15 0.15 98 1014.0
20260505204640 58 112 1.7 1.7 0.00 0.12 0.12 98 1013.8
20260505204540 58 90 1.7 2.6 0.00 0.12 0.12 99 1013.9
20260505204339 58 90 1.7 1.7 0.00 0.12 0.12 99 1014.1
20260505204240 58 90 1.7 1.7 0.00 0.12 0.12 99 1013.9
20260505204140 58 68 1.7 1.7 0.00 0.12 0.12 97 1014.0
20260505204040 58 90 1.7 2.6 0.00 0.12 0.12 96 1013.9
20260505203739 58 90 1.7 1.7 0.00 0.12 0.12 99 1013.9
20260505203539 58 90 1.7 2.6 0.00 0.12 0.12 98 1013.8
20260505203439 58 90 1.7 2.6 0.00 0.12 0.12 98 1013.9
20260505203240 58 90 2.6 2.6 0.00 0.12 0.12 98 1013.8
20260505203039 58 90 2.6 2.6 0.00 0.12 0.12 98 1014.0
20260505202940 58 90 2.6 3.5 0.00 0.12 0.12 98 1014.0
20260505202540 58 90 1.7 2.6 0.00 0.12 0.12 98 1013.8
20260505202339 58 90 2.6 3.5 0.00 0.12 0.12 98 1013.8
20260505202139 58 90 2.6 3.5 0.00 0.12 0.12 98 1013.8
20260505201939 58 112 2.6 3.5 0.00 0.12 0.12 98 1014.0
20260505201740 58 90 2.6 3.5 0.00 0.12 0.12 98 1013.8
20260505201640 58 90 2.6 3.5 0.00 0.12 0.12 98 1013.8
20260505201339 58 90 3.5 4.3 0.00 0.12 0.12 98 1014.1
20260505201040 58 90 2.6 3.5 0.00 0.12 0.12 98 1014.0
20260505200940 58 112 2.6 3.5 0.00 0.12 0.12 98 1014.0
20260505200539 58 90 2.6 3.5 0.00 0.12 0.12 98 1013.8
20260505200340 58 90 2.6 3.5 0.00 0.12 0.12 98 1014.0
20260505200140 58 90 2.6 3.5 0.00 0.12 0.12 98 1013.8
20260505200040 58 90 2.6 2.6 0.00 0.12 0.12 98 1013.8
20260505195940 58 90 2.6 3.5 0.00 0.12 0.12 98 1013.9
20260505195739 58 90 2.6 2.6 0.00 0.12 0.12 98 1013.9
20260505195639 58 90 2.6 2.6 0.00 0.12 0.12 98 1013.9
20260505195539 57 90 2.6 3.5 0.00 0.12 0.12 98 1013.8
20260505195439 57 90 2.6 3.5 0.00 0.12 0.12 98 1013.8
20260505194940 58 90 1.7 2.6 0.00 0.12 0.12 98 1013.8
20260505194839 58 90 1.7 2.6 0.00 0.12 0.12 98 1013.9
20260505194539 58 90 1.7 2.6 0.00 0.12 0.12 98 1013.7
20260505194440 58 90 1.7 1.7 0.00 0.12 0.12 98 1013.8
20260505194340 58 112 1.7 2.6 0.00 0.12 0.12 98 1013.9
20260505194239 58 90 2.6 3.5 0.00 0.12 0.12 98 1013.9
20260505194140 58 112 1.7 1.7 0.00 0.12 0.12 98 1013.8
20260505193940 58 68 1.7 2.6 0.00 0.12 0.12 98 1013.9
20260505193840 57 68 2.6 3.5 0.00 0.12 0.12 98 1013.9
20260505193740 58 68 2.6 2.6 0.00 0.12 0.12 98 1013.6
20260505193640 58 68 2.6 3.5 0.00 0.12 0.12 98 1013.8
20260505193440 58 90 2.6 3.5 0.00 0.12 0.12 98 1013.8
20260505193039 58 90 3.5 3.5 0.00 0.12 0.12 98 1013.7
20260505192639 58 90 2.6 2.6 0.00 0.12 0.12 98 1013.7
20260505192540 58 68 1.7 2.6 0.00 0.12 0.12 98 1013.8
20260505192139 58 90 1.7 1.7 0.00 0.12 0.12 98 1013.8
20260505191939 58 90 1.7 1.7 0.00 0.12 0.12 98 1013.7
20260505191839 58 90 1.7 2.6 0.00 0.12 0.12 98 1013.8
20260505191739 58 90 1.7 2.6 0.00 0.12 0.12 98 1013.9
20260505191440 58 112 1.7 1.7 0.00 0.12 0.12 98 1013.9
20260505191340 57 90 1.7 1.7 0.00 0.12 0.12 98 1013.8
20260505191140 57 90 1.7 1.7 0.00 0.12 0.12 98 1013.7
20260505190840 58 90 1.7 1.7 0.00 0.12 0.12 98 1013.8
20260505190740 58 90 1.7 1.7 0.00 0.12 0.12 98 1013.8
20260505190440 58 90 1.7 1.7 0.00 0.12 0.12 98 1013.7
20260505185839 58 90 1.7 2.6 0.00 0.12 0.12 98 1013.6
20260505185340 57 90 1.7 1.7 0.00 0.12 0.12 98 1013.6
20260505185240 57 68 1.7 2.6 0.00 0.12 0.12 98 1013.6
20260505185039 58 90 1.7 2.6 0.00 0.12 0.12 98 1013.6
20260505184640 58 90 1.7 2.6 0.00 0.12 0.12 98 1013.7
20260505184340 58 68 1.7 1.7 0.00 0.12 0.12 98 1013.6
20260505184239 58 68 1.7 1.7 0.00 0.12 0.12 98 1013.8
20260505184140 58 90 1.7 2.6 0.00 0.12 0.12 98 1013.7
20260505183839 58 90 2.6 2.6 0.00 0.12 0.12 98 1013.3
20260505183440 58 68 0.9 0.9 0.00 0.12 0.12 98 1013.6
20260505183340 58 45 0.9 1.7 0.00 0.12 0.12 98 1013.7
20260505183040 58 90 0.9 1.7 0.00 0.12 0.12 98 1013.5
20260505182539 58 68 0.9 1.7 0.00 0.12 0.12 98 1014.0
20260505182340 58 90 0.9 1.7 0.00 0.12 0.12 98 1013.6
20260505182140 58 90 0.9 1.7 0.00 0.12 0.12 98 1013.3
20260505181940 58 90 0.9 0.9 0.00 0.12 0.12 98 1013.5
20260505181439 57 45 0.9 0.9 0.00 0.12 0.12 98 1013.3
20260505181339 57 68 0.9 0.9 0.00 0.12 0.12 98 1013.7
20260505181239 57 68 0.9 0.9 0.00 0.12 0.12 98 1013.5
20260505181139 57 45 0.9 0.9 0.00 0.12 0.12 98 1013.6
20260505180939 58 68 0.9 0.9 0.00 0.12 0.12 98 1013.5
20260505180740 58 45 0.9 1.7 0.00 0.12 0.12 98 1013.3
20260505180639 58 45 1.7 1.7 0.00 0.12 0.12 98 1013.7
20260505180539 57 68 1.7 1.7 0.00 0.12 0.12 98 1013.3
20260505180339 58 68 1.7 1.7 0.00 0.12 0.12 98 1013.5
20260505175940 57 68 1.7 1.7 0.00 0.12 0.12 98 1013.3
20260505175840 57 68 1.7 1.7 0.00 0.12 0.12 98 1013.6
20260505175639 57 68 0.9 1.7 0.00 0.12 0.12 98 1013.6
20260505175440 57 90 0.9 1.7 0.00 0.12 0.12 98 1013.3
20260505175340 57 135 0.0 0.9 0.00 0.12 0.12 98 1013.5
20260505175239 57 135 0.0 0.9 0.00 0.12 0.12 98 1013.5
20260505175140 57 90 0.9 1.7 0.00 0.12 0.12 98 1013.6
20260505174840 57 135 0.9 0.9 0.00 0.12 0.12 98 1013.7
20260505174740 57 135 0.9 0.9 0.00 0.12 0.12 98 1013.6
20260505174440 57 90 1.7 1.7 0.00 0.12 0.12 98 1013.5
20260505174139 57 112 1.7 1.7 0.00 0.12 0.12 98 1013.6
20260505174039 57 112 1.7 1.7 0.00 0.12 0.12 98 1013.3
20260505173840 57 112 1.7 1.7 0.00 0.12 0.12 98 1013.5
20260505173739 57 112 1.7 1.7 0.00 0.12 0.12 98 1013.3
20260505173640 57 90 1.7 1.7 0.00 0.12 0.12 98 1013.2
20260505173240 57 90 2.6 3.5 0.00 0.12 0.12 98 1013.5
20260505173140 57 90 2.6 2.6 0.00 0.12 0.12 98 1013.5
20260505172739 57 90 2.6 3.5 0.00 0.12 0.12 98 1013.5
20260505172639 58 90 2.6 3.5 0.00 0.12 0.12 98 1013.3
20260505172539 57 68 2.6 3.5 0.00 0.12 0.12 98 1013.3
20260505172439 57 68 2.6 3.5 0.00 0.12 0.12 98 1013.3
20260505172240 57 68 2.6 3.5 0.00 0.12 0.12 98 1013.5
20260505171839 57 68 2.6 3.5 0.00 0.12 0.12 98 1013.5
20260505171540 57 68 1.7 2.6 0.00 0.12 0.12 98 1013.2
20260505171440 57 68 2.6 3.5 0.00 0.12 0.12 98 1013.3
20260505171340 57 68 2.6 3.5 0.00 0.12 0.12 97 1013.5
20260505171040 57 68 2.6 3.5 0.00 0.12 0.12 97 1013.5
20260505170740 57 90 2.6 2.6 0.00 0.12 0.12 98 1013.3
20260505170639 57 68 2.6 3.5 0.00 0.12 0.12 98 1013.3
20260505170539 57 90 1.7 2.6 0.00 0.12 0.12 98 1013.6
20260505170340 57 90 2.6 3.5 0.00 0.12 0.12 98 1013.5
20260505170140 57 90 1.7 2.6 0.00 0.12 0.12 98 1013.5
20260505165839 57 90 2.6 3.5 0.00 0.12 0.12 98 1013.5
20260505165540 57 90 2.6 3.5 0.00 0.12 0.12 98 1013.6
20260505165340 57 90 2.6 2.6 0.00 0.12 0.12 98 1013.5
20260505165239 57 90 2.6 2.6 0.00 0.12 0.12 98 1013.3
20260505165140 57 90 2.6 2.6 0.00 0.12 0.12 98 1013.5
20260505164940 57 90 2.6 3.5 0.00 0.12 0.12 98 1013.2
20260505164640 57 68 1.7 2.6 0.00 0.12 0.12 98 1013.6
20260505164540 57 68 1.7 2.6 0.00 0.12 0.12 98 1013.5
20260505164240 57 90 1.7 1.7 0.00 0.12 0.12 98 1013.5
20260505164140 57 68 1.7 1.7 0.00 0.12 0.12 98 1013.7
20260505163840 57 90 1.7 2.6 0.00 0.12 0.12 98 1013.6
20260505163740 57 90 1.7 2.6 0.00 0.12 0.12 98 1013.8
20260505163440 56 68 1.7 2.6 0.00 0.12 0.12 98 1013.5
20260505163339 56 45 2.6 2.6 0.00 0.12 0.12 98 1013.8
20260505163240 56 68 2.6 3.5 0.00 0.12 0.12 98 1013.5
20260505163040 56 68 2.6 2.6 0.00 0.12 0.12 98 1013.5
20260505162940 57 68 2.6 3.5 0.00 0.12 0.12 98 1013.7
20260505162740 56 68 1.7 2.6 0.00 0.12 0.12 98 1013.7
20260505162640 57 68 1.7 2.6 0.00 0.12 0.12 99 1014.0
20260505162540 56 90 2.6 3.5 0.00 0.12 0.12 98 1013.9
20260505162339 56 90 2.6 2.6 0.00 0.12 0.12 98 1013.7
20260505161939 57 90 2.6 2.6 0.00 0.12 0.12 99 1013.5
20260505161740 56 90 2.6 3.5 0.00 0.12 0.12 99 1013.9
20260505161640 56 68 1.7 2.6 0.00 0.12 0.12 99 1013.7
20260505161540 56 90 2.6 2.6 0.00 0.12 0.12 99 1013.9
20260505161439 57 90 1.7 2.6 0.00 0.12 0.12 99 1013.7
20260505161339 56 68 2.6 2.6 0.00 0.12 0.12 99 1013.7
20260505161240 56 90 1.7 2.6 0.00 0.12 0.12 99 1013.9
20260505161140 56 90 2.6 3.5 0.00 0.12 0.12 99 1013.7
20260505160840 56 68 2.6 3.5 0.00 0.12 0.12 99 1013.8
20260505160239 56 68 1.7 2.6 0.00 0.12 0.12 99 1013.6
20260505153339 56 68 0.9 0.9 0.02 0.12 0.12 99 1014.0
20260505153239 56 68 0.9 1.7 0.02 0.12 0.12 99 1014.0
20260505153139 56 45 0.9 0.9 0.02 0.12 0.12 99 1013.9
20260505152440 56 68 0.9 0.9 0.02 0.12 0.12 99 1013.7
20260505152340 56 45 0.9 0.9 0.02 0.12 0.12 99 1014.1
20260505152240 56 22 0.9 0.9 0.02 0.12 0.12 99 1014.0
20260505152140 56 22 0.9 0.9 0.03 0.12 0.12 99 1014.2
20260505151940 56 45 0.9 0.9 0.03 0.12 0.12 99 1014.0
20260505151840 56 0 0.0 0.9 0.03 0.12 0.12 99 1014.1
20260505151740 56 338 0.0 0.9 0.03 0.12 0.12 99 1014.1
20260505151340 56 338 0.0 0.9 0.03 0.12 0.12 99 1014.1
20260505151139 56 315 0.9 0.9 0.03 0.12 0.12 99 1014.1
20260505151039 56 315 0.0 0.9 0.03 0.12 0.12 99 1014.1
20260505150739 56 338 0.0 0.9 0.03 0.12 0.12 99 1014.1
20260505150540 56 0 0.0 0.0 0.03 0.12 0.12 99 1014.2
20260505150439 56 0 0.0 0.0 0.03 0.12 0.12 99 1013.9
20260505150239 56 338 0.0 0.9 0.03 0.12 0.12 99 1014.2
20260505140440 56 0 0.0 0.9 0.00 0.09 0.09 99 1014.1
20260505140340 56 0 0.0 0.9 0.00 0.09 0.09 99 1014.1
20260505140140 56 315 0.0 0.9 0.00 0.09 0.09 99 1014.1
20260505130240 57 270 0.0 0.9 0.03 0.09 0.09 99 1014.2
20260505130140 56 292 0.9 0.9 0.03 0.09 0.09 99 1014.4
20260505124640 57 292 0.0 0.9 0.03 0.08 0.08 99 1014.0
20260505124240 57 292 0.0 0.9 0.03 0.08 0.08 98 1014.4
20260505124139 56 315 0.9 0.9 0.03 0.08 0.08 98 1014.2
20260505123939 57 315 0.9 0.9 0.03 0.08 0.08 98 1014.2
20260505123740 56 338 0.9 0.9 0.03 0.08 0.08 99 1014.3
20260505123440 56 315 0.9 0.9 0.03 0.08 0.08 99 1014.0
20260505123340 56 338 0.9 0.9 0.03 0.08 0.08 99 1014.0
20260505123141 57 315 0.9 0.9 0.04 0.08 0.08 99 1014.2
20260505122439 57 315 0.0 0.9 0.03 0.07 0.07 99 1014.5
20260505122140 57 0 0.0 0.9 0.03 0.07 0.07 99 1014.3
20260505121640 57 270 0.0 0.0 0.02 0.05 0.05 99 1014.2
20260505121540 56 292 0.0 0.9 0.02 0.05 0.05 99 1014.2
20260505121340 57 202 0.0 0.9 0.02 0.05 0.05 99 1014.4
20260505120939 57 248 0.0 0.9 0.02 0.05 0.05 99 1014.3
20260505120340 57 0 0.0 0.9 0.02 0.05 0.05 99 1014.6
20260505120139 57 248 0.9 1.7 0.02 0.05 0.05 99 1014.4
20260505120039 57 248 0.9 0.9 0.02 0.05 0.05 99 1014.2
20260505115840 57 202 0.9 0.9 0.02 0.05 0.05 99 1014.5
20260505115540 57 90 0.0 0.9 0.02 0.05 0.05 99 1014.3
20260505115240 58 225 0.0 0.9 0.01 0.04 0.04 99 1014.3
20260505115140 58 225 0.0 0.9 0.01 0.04 0.04 99 1014.3
20260505115040 58 270 0.0 0.9 0.01 0.04 0.04 99 1014.3
20260505114739 58 225 0.0 0.9 0.01 0.04 0.04 99 1014.4
20260505114639 58 248 0.0 0.0 0.01 0.04 0.04 99 1014.3
20260505114039 58 270 0.0 0.9 0.01 0.04 0.04 99 1014.2
20260505113740 58 270 0.0 0.9 0.01 0.04 0.04 98 1014.4
20260505113539 58 248 0.9 0.9 0.01 0.04 0.04 98 1014.2
20260505113439 58 270 1.7 1.7 0.01 0.04 0.04 98 1014.3
20260505113339 58 270 0.9 1.7 0.00 0.03 0.03 98 1014.0
20260505112740 58 270 0.9 1.7 0.00 0.03 0.03 97 1014.4
20260505112639 58 248 0.0 0.9 0.00 0.03 0.03 97 1014.2
20260505112340 58 248 0.9 0.9 0.00 0.03 0.03 97 1014.3
20260505112241 59 270 1.7 1.7 0.00 0.03 0.03 97 1014.4
20260505112040 59 270 0.0 0.9 0.00 0.03 0.03 97 1014.3
20260505111840 59 270 0.0 0.9 0.00 0.03 0.03 97 1014.1
20260505111739 59 180 0.0 0.9 0.00 0.03 0.03 97 1014.1
20260505111639 59 270 0.9 0.9 0.00 0.03 0.03 97 1014.1
20260505111440 59 270 0.0 0.9 0.00 0.03 0.03 96 1014.2
20260505111340 59 248 0.0 0.9 0.00 0.03 0.03 96 1014.4
20260505110940 60 158 0.0 0.0 0.00 0.03 0.03 96 1014.5
20260505110740 60 158 0.0 0.0 0.00 0.03 0.03 96 1014.1
20260505110640 59 158 0.0 0.0 0.00 0.03 0.03 96 1014.4
20260505110340 59 158 0.0 0.9 0.00 0.03 0.03 96 1014.3
20260505110240 59 135 0.0 0.0 0.00 0.03 0.03 96 1014.2
20260505102140 59 112 0.0 0.0 0.00 0.03 0.03 97 1014.3
20260505102039 59 180 0.0 0.9 0.00 0.03 0.03 97 1014.2
20260505101940 59 292 0.0 0.0 0.00 0.03 0.03 97 1014.3
20260505101741 59 248 0.0 0.9 0.00 0.03 0.03 97 1014.3
20260505101644 59 292 0.0 0.9 0.00 0.03 0.03 97 1014.1
20260505101540 59 270 0.0 0.0 0.00 0.03 0.03 97 1014.3
20260505101240 59 90 0.0 0.9 0.00 0.03 0.03 96 1014.3
20260505101045 59 112 0.9 0.9 0.00 0.03 0.03 96 1014.2
20260505100940 59 90 0.0 0.9 0.00 0.03 0.03 96 1014.1
20260505100639 58 90 0.0 0.0 0.00 0.03 0.03 97 1014.2
20260505100439 59 90 0.0 0.0 0.00 0.03 0.03 97 1014.1
20260505100039 59 112 0.0 0.0 0.00 0.03 0.03 96 1013.9
20260505095840 59 112 0.0 0.0 0.00 0.03 0.03 96 1014.2
20260505095740 59 112 0.0 0.0 0.00 0.03 0.03 96 1014.2
20260505095440 59 112 0.0 0.0 0.00 0.03 0.03 96 1014.2
20260505095340 59 112 0.0 0.0 0.00 0.03 0.03 96 1014.3
20260505095239 59 112 0.9 0.9 0.01 0.03 0.03 96 1014.0
20260505095139 59 112 0.9 0.9 0.01 0.03 0.03 96 1014.0
20260505094639 58 112 1.7 2.6 0.01 0.03 0.03 97 1014.0
20260505094439 58 158 0.9 0.9 0.01 0.03 0.03 97 1013.8
20260505094139 58 112 0.9 1.7 0.01 0.03 0.03 97 1013.8
20260505094039 58 90 1.7 1.7 0.02 0.03 0.03 97 1013.7
20260505093939 58 135 1.7 2.6 0.02 0.03 0.03 97 1013.8
20260505093740 58 112 1.7 2.6 0.02 0.03 0.03 97 1013.8
20260505093539 58 158 1.7 2.6 0.02 0.03 0.03 97 1013.8
20260505093440 58 112 1.7 3.5 0.02 0.03 0.03 97 1013.8
20260505093240 58 135 1.7 3.5 0.02 0.03 0.03 97 1013.8
20260505093039 58 90 2.6 2.6 0.02 0.03 0.03 97 1013.8
20260505092739 58 90 1.7 2.6 0.03 0.03 0.03 97 1013.8
20260505092540 58 135 1.7 3.5 0.03 0.03 0.03 97 1013.6
20260505091840 58 112 3.5 3.5 0.03 0.03 0.03 97 1013.7
20260505091639 58 68 3.5 4.3 0.03 0.03 0.03 97 1013.9
20260505091540 58 90 2.6 4.3 0.03 0.03 0.03 97 1013.8
20260505091440 58 90 3.5 3.5 0.03 0.03 0.03 97 1013.7
20260505091239 58 90 2.6 3.5 0.03 0.03 0.03 97 1013.8
20260505091140 58 112 3.5 5.2 0.03 0.03 0.03 97 1013.8
20260505090840 58 112 3.5 4.3 0.03 0.03 0.03 98 1013.7
20260505090639 58 90 3.5 4.3 0.03 0.03 0.03 97 1013.8
20260505090539 58 90 3.5 4.3 0.03 0.03 0.03 97 1013.6
20260505090439 58 68 3.5 4.3 0.03 0.03 0.03 97 1013.8
20260505090339 58 90 4.3 4.3 0.03 0.03 0.03 97 1013.7
20260505090140 58 90 4.3 5.2 0.03 0.03 0.03 97 1013.7
20260505085940 58 90 4.3 5.2 0.03 0.03 0.03 97 1013.8
20260505085540 58 90 4.3 5.2 0.03 0.03 0.03 97 1013.8
20260505085440 58 90 3.5 3.5 0.03 0.03 0.03 97 1013.9
20260505085340 58 90 3.5 4.3 0.02 0.02 0.02 97 1013.8
20260505085040 58 90 2.6 3.5 0.02 0.02 0.02 97 1013.7
20260505084639 58 90 3.5 3.5 0.02 0.02 0.02 97 1013.6
20260505084540 58 112 2.6 3.5 0.02 0.02 0.02 97 1013.8
20260505084339 58 90 2.6 2.6 0.02 0.02 0.02 97 1013.8
20260505084140 58 90 1.7 2.6 0.01 0.01 0.01 97 1013.8
20260505084040 58 90 1.7 1.7 0.01 0.01 0.01 97 1014.0
20260505083639 58 90 1.7 1.7 0.01 0.01 0.01 98 1013.8
20260505082939 58 22 0.0 0.9 0.00 0.00 0.00 98 1013.9
20260505082839 58 22 0.0 0.9 0.00 0.00 0.00 98 1013.9
20260505082739 58 0 0.0 0.9 0.00 0.00 0.00 98 1013.9
20260505082540 58 22 0.0 0.9 0.00 0.00 0.00 98 1013.9
20260505082341 58 0 0.0 0.9 0.00 0.00 0.00 98 1014.4
20260505082140 58 0 0.0 0.9 0.00 0.00 0.00 98 1014.2
20260505082040 58 0 0.0 0.9 0.00 0.00 0.00 98 1014.2
20260505081739 58 315 0.9 0.9 0.00 0.00 0.00 98 1014.4
20260505081639 58 315 0.9 0.9 0.00 0.00 0.00 98 1014.4
20260505081239 58 292 0.9 1.7 0.00 0.00 0.00 98 1014.3
20260505081039 58 292 0.9 0.9 0.00 0.00 0.00 98 1014.3
20260505080840 58 292 0.9 0.9 0.00 0.00 0.00 98 1014.5
20260505080740 58 292 0.9 0.9 0.00 0.00 0.00 98 1014.5
20260505080539 58 292 0.9 0.9 0.00 0.00 0.00 98 1014.4
20260505080340 58 270 0.9 0.9 0.00 0.00 0.00 98 1014.3
20260505080240 58 270 0.9 1.7 0.00 0.00 0.00 98 1014.4
20260505080140 59 270 0.9 0.9 0.00 0.00 0.00 98 1014.4
20260505075739 58 270 0.9 0.9 0.00 0.00 0.00 98 1014.6
20260505075540 58 292 0.9 1.7 0.00 0.00 0.00 98 1014.5
20260505075440 58 270 1.7 1.7 0.00 0.00 0.00 98 1014.5
20260505075039 58 292 0.9 1.7 0.00 0.00 0.00 98 1014.4
20260505074941 58 270 1.7 1.7 0.00 0.00 0.00 98 1014.6
20260505074840 58 270 0.9 1.7 0.00 0.00 0.00 98 1014.5
20260505074540 58 248 0.0 0.9 0.00 0.00 0.00 98 1014.5
20260505074340 58 248 0.9 0.9 0.00 0.00 0.00 98 1014.4
20260505074040 58 270 0.9 1.7 0.00 0.00 0.00 98 1014.4
20260505073940 58 292 0.9 0.9 0.00 0.00 0.00 98 1014.3
20260505073740 58 292 0.9 1.7 0.00 0.00 0.00 98 1014.5
20260505073640 59 270 0.9 0.9 0.00 0.00 0.00 98 1014.3
20260505073339 58 292 1.7 1.7 0.00 0.00 0.00 98 1014.3
20260505073239 58 292 0.9 0.9 0.00 0.00 0.00 98 1014.4
20260505072739 59 270 0.0 0.9 0.00 0.00 0.00 97 1014.6
20260505072639 59 292 0.9 0.9 0.00 0.00 0.00 98 1014.4
20260505072340 59 270 0.0 0.9 0.00 0.00 0.00 98 1014.4
20260505072240 59 248 0.0 0.9 0.00 0.00 0.00 98 1014.4
20260505072040 59 202 0.0 0.9 0.00 0.00 0.00 98 1014.4
20260505071940 59 248 0.0 0.9 0.00 0.00 0.00 98 1014.4
20260505070839 59 248 0.9 1.7 0.00 0.00 0.00 97 1014.5
20260505070740 59 270 0.0 0.9 0.00 0.00 0.00 97 1014.5
20260505070640 59 338 0.0 0.9 0.00 0.00 0.00 97 1014.4
20260505070340 59 225 0.9 1.7 0.00 0.00 0.00 97 1014.2
20260505065939 60 248 0.0 0.9 0.00 0.00 0.00 96 1014.3
20260505065739 60 248 0.0 0.9 0.00 0.00 0.00 96 1014.2
20260505065640 60 202 0.0 0.9 0.00 0.00 0.00 96 1014.1
20260505065539 60 180 0.0 0.9 0.00 0.00 0.00 96 1014.2
20260505065439 60 248 0.0 0.9 0.00 0.00 0.00 96 1014.2
20260505065239 60 180 0.0 0.9 0.00 0.00 0.00 96 1014.0
20260505065140 60 112 0.0 0.9 0.00 0.00 0.00 96 1014.0
20260505064940 60 0 0.0 0.9 0.00 0.00 0.00 96 1014.0
20260505064739 60 248 0.0 0.9 0.00 0.00 0.00 96 1014.0
20260505064339 60 248 0.0 0.9 0.00 0.00 0.00 96 1014.1
20260505064140 60 248 0.0 0.0 0.00 0.00 0.00 96 1013.8
20260505064040 60 225 0.0 0.9 0.00 0.00 0.00 96 1013.9
20260505063940 60 248 0.9 2.6 0.00 0.00 0.00 96 1013.9
20260505063840 60 270 1.7 2.6 0.00 0.00 0.00 95 1013.9
20260505063640 60 22 0.9 1.7 0.00 0.00 0.00 95 1013.9
20260505063440 60 225 0.0 0.9 0.00 0.00 0.00 95 1013.9
20260505063239 60 270 0.9 2.6 0.00 0.00 0.00 95 1013.8
20260505063140 60 270 0.0 0.9 0.00 0.00 0.00 95 1013.8
20260505062939 60 225 0.0 0.9 0.00 0.00 0.00 94 1013.7
20260505062640 61 225 0.0 0.9 0.00 0.00 0.00 95 1013.7
20260505062039 61 180 0.0 0.9 0.00 0.00 0.00 93 1013.7
20260505061940 61 225 0.0 0.9 0.00 0.00 0.00 93 1013.8
20260505061840 61 270 0.9 1.7 0.00 0.00 0.00 93 1013.8
20260505061740 61 270 0.9 1.7 0.00 0.00 0.00 93 1013.9
20260505061540 61 270 0.0 0.9 0.00 0.00 0.00 93 1013.8
20260505061440 61 112 0.0 0.0 0.00 0.00 0.00 93 1013.7
20260505061340 61 158 0.0 0.9 0.00 0.00 0.00 93 1013.9
20260505061139 61 68 0.9 1.7 0.00 0.00 0.00 91 1013.6
20260505060939 61 90 0.9 1.7 0.00 0.00 0.00 91 1013.6
20260505060840 61 248 0.0 0.9 0.00 0.00 0.00 91 1013.5
20260505060740 61 112 0.9 1.7 0.00 0.00 0.00 91 1013.8
20260505060240 62 158 0.9 0.9 0.00 0.00 0.00 90 1013.7
20260505060039 62 135 0.0 0.9 0.00 0.00 0.00 89 1013.5
20260505055939 62 202 0.9 0.9 0.00 0.00 0.00 88 1013.6
20260505055539 62 90 0.9 1.7 0.00 0.00 0.00 88 1013.3
20260505055340 62 90 1.7 1.7 0.00 0.00 0.00 87 1013.7
20260505055240 62 112 0.0 1.7 0.00 0.00 0.00 87 1013.6
20260505054840 62 135 0.9 1.7 0.00 0.00 0.00 87 1013.3
20260505054740 62 270 0.9 1.7 0.00 0.00 0.00 86 1013.5
20260505054640 62 248 0.9 1.7 0.00 0.00 0.00 85 1013.5
20260505054440 62 225 0.0 0.9 0.00 0.00 0.00 85 1013.3
20260505054239 62 270 0.0 0.9 0.00 0.00 0.00 86 1013.3
20260505054040 62 112 0.0 0.9 0.00 0.00 0.00 86 1013.3
20260505053940 62 225 0.0 0.9 0.00 0.00 0.00 86 1013.5
20260505053840 62 248 0.0 0.9 0.00 0.00 0.00 85 1013.2
20260505053740 62 180 0.9 1.7 0.00 0.00 0.00 85 1013.2
20260505053540 62 180 0.9 1.7 0.00 0.00 0.00 85 1013.3
20260505053339 62 315 0.0 0.9 0.00 0.00 0.00 86 1013.0
20260505053140 62 135 0.0 0.9 0.00 0.00 0.00 86 1013.2
20260505053039 62 90 0.9 1.7 0.00 0.00 0.00 86 1013.2
20260505052839 62 112 0.0 0.0 0.00 0.00 0.00 85 1013.1
20260505052639 62 248 0.0 0.9 0.00 0.00 0.00 86 1013.1
20260505052540 62 248 0.0 0.9 0.00 0.00 0.00 87 1013.1
20260505052440 62 225 0.0 0.9 0.00 0.00 0.00 85 1013.1
20260505052340 62 225 0.0 0.9 0.00 0.00 0.00 85 1013.1
20260505052039 62 135 1.7 2.6 0.00 0.00 0.00 86 1013.0
20260505051939 62 68 0.9 1.7 0.00 0.00 0.00 86 1013.0
20260505051839 62 90 3.5 6.1 0.00 0.00 0.00 86 1013.0
20260505051739 61 90 0.9 2.6 0.00 0.00 0.00 85 1013.1
20260505051539 61 90 0.9 1.7 0.00 0.00 0.00 83 1013.1
20260505051439 61 112 0.9 0.9 0.00 0.00 0.00 88 1013.1
20260505051339 61 90 0.0 0.9 0.00 0.00 0.00 87 1013.1
20260505051139 61 90 1.7 1.7 0.00 0.00 0.00 87 1013.0
20260505050839 61 90 1.7 1.7 0.00 0.00 0.00 86 1013.1
20260505050640 61 90 1.7 1.7 0.00 0.00 0.00 89 1013.2
20260505050439 61 90 1.7 1.7 0.00 0.00 0.00 87 1013.0
20260505041740 60 112 1.7 3.5 0.00 0.00 0.00 88 1013.5
20260505041640 61 90 1.7 2.6 0.00 0.00 0.00 90 1013.3
20260505041240 61 112 2.6 3.5 0.00 0.00 0.00 91 1013.3
20260505041039 60 68 3.5 3.5 0.00 0.00 0.00 89 1013.7
20260505040939 61 68 2.6 3.5 0.00 0.00 0.00 92 1013.3
20260505040139 61 68 1.7 2.6 0.00 0.00 0.00 93 1013.3
20260505035940 61 90 2.6 3.5 0.00 0.00 0.00 91 1013.6
20260505035840 61 68 2.6 2.6 0.00 0.00 0.00 91 1013.3
20260505035439 61 68 1.7 2.6 0.00 0.00 0.00 92 1013.6
20260505035339 61 68 1.7 2.6 0.00 0.00 0.00 93 1013.5
20260505035239 60 68 1.7 2.6 0.00 0.00 0.00 90 1013.5
20260505034940 61 68 2.6 3.5 0.00 0.00 0.00 91 1013.5
20260505034639 60 68 3.5 3.5 0.00 0.00 0.00 87 1013.3
20260505034339 61 90 3.5 4.3 0.00 0.00 0.00 91 1013.3
20260505034240 61 68 3.5 3.5 0.00 0.00 0.00 90 1013.5
20260505034039 61 68 3.5 4.3 0.00 0.00 0.00 87 1013.3
20260505033940 61 68 3.5 4.3 0.00 0.00 0.00 88 1013.5